星链-34714 (STARLINK-34714)

导读

STARLINK-34714是美国星链互联网卫星星座的组成卫星,于2025年7月26日发射入轨,归属于SpaceX公司,服务于星链星座全球卫星互联网组网布局。该卫星延续星链星座设计理念,可为地面偏远地区、移动载体等用户提供高速低延迟的宽带互联网接入服务,推动星链星座覆盖能力持续完善。

基本信息
目录编号:
64939
目录名称:
STARLINK-34714
国际标识:
2025-158H
轨道中心:
EARTH
卫星名称:
星链-34714
卫星全名:
星链-34714 (STARLINK-34714)
卫星状态:
在轨 (已飞行322 天)
发射日期:
2025-07-26 UTC
国别 :
美国 (US)
星等 :
--
轨道信息
数据来源 国际轨道数据
星历时间: 2026-06-13T13:03:05+0800
12小时前
查看轨道信息
半长轴: 6927.679km
偏心率: 0.0002691
轨道倾角: 97.367°
近地点辐角 86.246°
升交点赤经 27.447°
平近点角 273.907°
近地点: 547.677km
远地点: 551.407km
周期: 95.640分钟
每日圈数: 15.056402
详细信息
固有亮度:
5
最大亮度:
2.5
卫星平台:
Starlink V1.0
覆盖范围:
全球
运营商:
太空探索技术公司
运营商所在国:
美国
制造商(研发单位):
太空探索技术公司
制造商所在国:
美国
使用方式:
暂无
卫星简介
Starlink 计划是 SpaceX 推出的全球卫星互联网项目,通过发射低轨道卫星,为全球尤其是偏远地区提供高速、低延迟的互联网服务。自 2019 年起,Starlink 已部署数千颗卫星,旨在缩小全球数字鸿沟,推动互联网普及。该项目还为军事、航空等行业提供通信支持,带来广泛经济效益。
2D轨道图
3D轨道图
轨道高度分析图
轨道倾角分析图
轨道综合分析图
查看轨道综合分析图